Time,TemperatureF,DewpointF,PressureIn,WindDirection,WindDirectionDegrees,WindSpeedMPH,WindSpeedGustMPH,Humidity,HourlyPrecipIn,Conditions,Clouds,dailyrainin,SolarRadiationWatts/m^2,SoftwareType,DateUTC
2013-01-05 00:00:00,14.9,11.2,30.20,SW,230,0.0,2.0,85,0.00,,---,0.00,0.00,VWS V14.01,2013-01-05 06:00:00,
2013-01-05 00:01:00,14.9,11.2,30.20,SW,230,0.0,0.0,85,0.00,,---,0.00,0.00,VWS V14.01,2013-01-05 06:01:00,
2013-01-05 00:06:00,14.6,10.9,30.20,SW,230,0.0,0.0,85,0.00,,---,0.00,0.00,VWS V14.01,2013-01-05 06:06:00,
2013-01-05 00:11:00,14.1,10.4,30.20,SW,230,1.0,1.0,85,0.00,,---,0.00,0.00,VWS V14.01,2013-01-05 06:11:00,
2013-01-05 00:16:00,13.5,9.8,30.20,SW,230,0.0,2.0,85,0.00,,---,0.00,0.00,VWS V14.01,2013-01-05 06:16:00,
2013-01-05 00:21:00,13.1,9.4,30.19,SW,230,0.0,2.0,85,0.00,,---,0.00,0.00,VWS V14.01,2013-01-05 06:21:00,
2013-01-05 00:26:00,12.8,9.1,30.19,SW,230,1.0,2.0,85,0.00,,---,0.00,0.00,VWS V14.01,2013-01-05 06:26:00,
2013-01-05 00:31:00,12.1,8.5,30.19,SW,230,0.0,2.0,85,0.00,,---,0.00,0.00,VWS V14.01,2013-01-05 06:31:00,
2013-01-05 00:36:00,11.9,8.3,30.19,SW,230,0.0,2.0,85,0.00,,---,0.00,0.00,VWS V14.01,2013-01-05 06:36:00,
2013-01-05 00:41:00,11.7,8.1,30.18,SW,230,1.0,2.0,85,0.00,,---,0.00,0.00,VWS V14.01,2013-01-05 06:41:00,
2013-01-05 00:46:00,11.2,7.6,30.18,SW,230,0.0,2.0,85,0.00,,---,0.00,0.00,VWS V14.01,2013-01-05 06:46:00,
2013-01-05 00:51:00,11.1,7.5,30.18,SW,230,0.0,2.0,85,0.00,,---,0.00,0.00,VWS V14.01,2013-01-05 06:51:00,
2013-01-05 00:56:00,10.9,7.3,30.18,SW,230,0.0,2.0,85,0.00,,---,0.00,0.00,VWS V14.01,2013-01-05 06:56:00,
2013-01-05 01:00:00,10.8,7.2,30.18,SW,230,0.0,2.0,85,0.00,,---,0.00,0.00,VWS V14.01,2013-01-05 07:00:00,
2013-01-05 01:01:00,10.8,7.2,30.17,SW,230,0.0,0.0,85,0.00,,---,0.00,0.00,VWS V14.01,2013-01-05 07:01:00,
2013-01-05 01:06:00,10.6,7.0,30.17,SW,230,0.0,0.0,85,0.00,,---,0.00,0.00,VWS V14.01,2013-01-05 07:06:00,
2013-01-05 01:11:00,10.3,6.7,30.17,SW,230,1.0,1.0,85,0.00,,---,0.00,0.00,VWS V14.01,2013-01-05 07:11:00,
2013-01-05 01:16:00,9.8,6.2,30.17,SW,230,1.0,2.0,85,0.00,,---,0.00,0.00,VWS V14.01,2013-01-05 07:16:00,
2013-01-05 01:21:00,9.5,5.9,30.17,SW,230,0.0,2.0,85,0.00,,---,0.00,0.00,VWS V14.01,2013-01-05 07:21:00,
2013-01-05 01:26:00,9.3,5.7,30.16,SW,230,0.0,2.0,85,0.00,,---,0.00,0.00,VWS V14.01,2013-01-05 07:26:00,
2013-01-05 01:31:00,9.1,5.5,30.17,SW,230,0.0,2.0,85,0.00,,---,0.00,0.00,VWS V14.01,2013-01-05 07:31:00,
2013-01-05 01:36:00,8.7,5.1,30.18,SW,230,3.0,3.0,85,0.00,,---,0.00,0.00,VWS V14.01,2013-01-05 07:36:00,
2013-01-05 01:41:00,8.0,4.2,30.18,SW,230,2.0,3.0,84,0.00,,---,0.00,0.00,VWS V14.01,2013-01-05 07:41:00,
2013-01-05 01:46:00,7.5,3.7,30.18,SW,230,0.0,3.0,84,0.00,,---,0.00,0.00,VWS V14.01,2013-01-05 07:46:00,
2013-01-05 01:51:00,7.3,3.5,30.18,SW,230,1.0,3.0,84,0.00,,---,0.00,0.00,VWS V14.01,2013-01-05 07:51:00,
2013-01-05 01:56:00,7.3,3.8,30.19,SW,230,0.0,3.0,85,0.00,,---,0.00,0.00,VWS V14.01,2013-01-05 07:56:00,
2013-01-05 02:00:00,7.0,3.5,30.20,SW,230,4.0,5.0,85,0.00,,---,0.00,0.00,VWS V14.01,2013-01-05 08:00:00,
2013-01-05 02:01:00,6.8,3.0,30.21,SW,230,3.0,5.0,84,0.00,,---,0.00,0.00,VWS V14.01,2013-01-05 08:01:00,
2013-01-05 02:06:00,6.4,2.9,30.21,SW,230,1.0,5.0,85,0.00,,---,0.00,0.00,VWS V14.01,2013-01-05 08:06:00,
2013-01-05 02:11:00,6.6,3.3,30.21,SW,230,1.0,5.0,86,0.00,,---,0.00,0.00,VWS V14.01,2013-01-05 08:11:00,
2013-01-05 02:16:00,6.9,3.9,30.22,SW,230,2.0,5.0,87,0.00,,---,0.00,0.00,VWS V14.01,2013-01-05 08:16:00,
2013-01-05 02:21:00,8.1,5.3,30.23,SSW,207,3.0,5.0,88,0.00,,---,0.00,0.00,VWS V14.01,2013-01-05 08:21:00,
2013-01-05 02:26:00,8.7,6.1,30.23,SSW,207,0.0,5.0,89,0.00,,---,0.00,0.00,VWS V14.01,2013-01-05 08:26:00,
2013-01-05 02:31:00,9.0,6.4,30.23,SSW,207,0.0,5.0,89,0.00,,---,0.00,0.00,VWS V14.01,2013-01-05 08:31:00,
2013-01-05 02:36:00,9.4,6.8,30.23,SSW,207,0.0,5.0,89,0.00,,---,0.00,0.00,VWS V14.01,2013-01-05 08:36:00,
2013-01-05 02:41:00,10.1,7.8,30.23,SSW,207,0.0,5.0,90,0.00,,---,0.00,0.00,VWS V14.01,2013-01-05 08:41:00,
2013-01-05 02:46:00,10.5,8.1,30.22,SSW,207,2.0,5.0,90,0.00,,---,0.00,0.00,VWS V14.01,2013-01-05 08:46:00,
2013-01-05 02:51:00,10.2,7.6,30.22,SSW,207,2.0,5.0,89,0.00,,---,0.00,0.00,VWS V14.01,2013-01-05 08:51:00,
2013-01-05 02:56:00,9.9,7.3,30.22,SSW,207,0.0,5.0,89,0.00,,---,0.00,0.00,VWS V14.01,2013-01-05 08:56:00,
2013-01-05 03:00:00,9.9,7.3,30.21,SSW,207,2.0,5.0,89,0.00,,---,0.00,0.00,VWS V14.01,2013-01-05 09:00:00,
2013-01-05 03:01:00,10.0,7.4,30.21,SSW,207,1.0,2.0,89,0.00,,---,0.00,0.00,VWS V14.01,2013-01-05 09:01:00,
2013-01-05 03:06:00,10.1,7.8,30.21,SSW,207,0.0,2.0,90,0.00,,---,0.00,0.00,VWS V14.01,2013-01-05 09:06:00,
2013-01-05 03:11:00,10.2,7.6,30.21,SSW,207,0.0,2.0,89,0.00,,---,0.00,0.00,VWS V14.01,2013-01-05 09:11:00,
2013-01-05 03:16:00,10.1,7.5,30.20,SSW,207,0.0,2.0,89,0.00,,---,0.00,0.00,VWS V14.01,2013-01-05 09:16:00,
2013-01-05 03:21:00,10.1,7.5,30.20,SSW,207,0.0,2.0,89,0.00,,---,0.00,0.00,VWS V14.01,2013-01-05 09:21:00,
2013-01-05 03:26:00,10.1,7.5,30.20,SSW,207,0.0,2.0,89,0.00,,---,0.00,0.00,VWS V14.01,2013-01-05 09:26:00,
2013-01-05 03:31:00,10.2,7.9,30.20,SSW,207,0.0,2.0,90,0.00,,---,0.00,0.00,VWS V14.01,2013-01-05 09:31:00,
2013-01-05 03:36:00,10.2,7.9,30.20,SSW,207,1.0,2.0,90,0.00,,---,0.00,0.00,VWS V14.01,2013-01-05 09:36:00,
2013-01-05 03:41:00,9.8,7.2,30.20,SSW,207,1.0,2.0,89,0.00,,---,0.00,0.00,VWS V14.01,2013-01-05 09:41:00,
2013-01-05 03:46:00,9.5,6.9,30.20,SSW,207,0.0,2.0,89,0.00,,---,0.00,0.00,VWS V14.01,2013-01-05 09:46:00,
2013-01-05 03:51:00,9.4,6.8,30.20,SSW,207,0.0,2.0,89,0.00,,---,0.00,0.00,VWS V14.01,2013-01-05 09:51:00,
2013-01-05 03:56:00,9.4,6.8,30.19,SSW,207,0.0,2.0,89,0.00,,---,0.00,0.00,VWS V14.01,2013-01-05 09:56:00,
2013-01-05 04:00:00,9.4,6.8,30.19,SSW,207,0.0,2.0,89,0.00,,---,0.00,0.00,VWS V14.01,2013-01-05 10:00:00,
2013-01-05 04:01:00,9.4,6.8,30.19,SSW,207,0.0,2.0,89,0.00,,---,0.00,0.00,VWS V14.01,2013-01-05 10:01:00,
2013-01-05 04:06:00,9.2,6.6,30.18,SSW,207,1.0,2.0,89,0.00,,---,0.00,0.00,VWS V14.01,2013-01-05 10:06:00,
2013-01-05 04:11:00,9.1,6.5,30.18,SSW,207,2.0,2.0,89,0.00,,---,0.00,0.00,VWS V14.01,2013-01-05 10:11:00,
2013-01-05 04:16:00,8.9,6.1,30.17,SSW,207,0.0,2.0,88,0.00,,---,0.00,0.00,VWS V14.01,2013-01-05 10:16:00,
2013-01-05 04:21:00,8.6,5.8,30.17,SSW,207,2.0,2.0,88,0.00,,---,0.00,0.00,VWS V14.01,2013-01-05 10:21:00,
2013-01-05 04:26:00,8.4,5.6,30.16,SSW,207,0.0,2.0,88,0.00,,---,0.00,0.00,VWS V14.01,2013-01-05 10:26:00,
2013-01-05 04:31:00,8.3,5.5,30.16,SSW,207,2.0,2.0,88,0.00,,---,0.00,0.00,VWS V14.01,2013-01-05 10:31:00,
2013-01-05 04:36:00,7.8,5.0,30.16,SSW,207,2.0,3.0,88,0.00,,---,0.00,0.00,VWS V14.01,2013-01-05 10:36:00,
2013-01-05 04:41:00,7.4,4.6,30.16,SSW,207,1.0,3.0,88,0.00,,---,0.00,0.00,VWS V14.01,2013-01-05 10:41:00,
2013-01-05 04:46:00,7.1,4.1,30.16,SSW,207,1.0,3.0,87,0.00,,---,0.00,0.00,VWS V14.01,2013-01-05 10:46:00,
2013-01-05 04:51:00,6.7,3.7,30.16,SSW,207,1.0,3.0,87,0.00,,---,0.00,0.00,VWS V14.01,2013-01-05 10:51:00,
2013-01-05 04:56:00,6.4,3.4,30.16,SSW,207,1.0,3.0,87,0.00,,---,0.00,0.00,VWS V14.01,2013-01-05 10:56:00,
2013-01-05 05:00:00,6.3,3.3,30.16,SSW,207,0.0,3.0,87,0.00,,---,0.00,0.00,VWS V14.01,2013-01-05 11:00:00,
2013-01-05 05:01:00,6.3,3.3,30.16,SSW,207,0.0,1.0,87,0.00,,---,0.00,0.00,VWS V14.01,2013-01-05 11:01:00,
2013-01-05 05:06:00,6.3,3.3,30.16,SSW,207,0.0,1.0,87,0.00,,---,0.00,0.00,VWS V14.01,2013-01-05 11:06:00,
2013-01-05 05:11:00,6.3,3.3,30.16,SSW,207,1.0,1.0,87,0.00,,---,0.00,0.00,VWS V14.01,2013-01-05 11:11:00,
2013-01-05 05:16:00,6.5,3.7,30.15,SSW,207,0.0,1.0,88,0.00,,---,0.00,0.00,VWS V14.01,2013-01-05 11:16:00,
2013-01-05 05:21:00,6.6,3.8,30.15,SSW,207,0.0,1.0,88,0.00,,---,0.00,0.00,VWS V14.01,2013-01-05 11:21:00,
2013-01-05 05:26:00,6.6,3.8,30.14,SSW,207,0.0,1.0,88,0.00,,---,0.00,0.00,VWS V14.01,2013-01-05 11:26:00,
2013-01-05 05:31:00,6.5,3.7,30.14,SSW,207,0.0,1.0,88,0.00,,---,0.00,0.00,VWS V14.01,2013-01-05 11:31:00,
2013-01-05 05:36:00,6.4,3.6,30.14,SSW,207,0.0,1.0,88,0.00,,---,0.00,0.00,VWS V14.01,2013-01-05 11:36:00,
2013-01-05 05:41:00,6.3,3.5,30.15,SSW,207,1.0,1.0,88,0.00,,---,0.00,0.00,VWS V14.01,2013-01-05 11:41:00,
2013-01-05 05:46:00,6.1,3.1,30.15,SSW,207,0.0,1.0,87,0.00,,---,0.00,0.00,VWS V14.01,2013-01-05 11:46:00,
2013-01-05 05:51:00,5.9,2.9,30.15,SSW,207,1.0,1.0,87,0.00,,---,0.00,0.00,VWS V14.01,2013-01-05 11:51:00,
2013-01-05 05:56:00,5.6,2.6,30.14,SSW,207,0.0,2.0,87,0.00,,---,0.00,0.00,VWS V14.01,2013-01-05 11:56:00,
2013-01-05 06:00:00,5.5,2.5,30.14,SSW,207,0.0,2.0,87,0.00,,---,0.00,0.00,VWS V14.01,2013-01-05 12:00:00,
2013-01-05 06:01:00,5.5,2.5,30.15,SSW,207,0.0,0.0,87,0.00,,---,0.00,0.00,VWS V14.01,2013-01-05 12:01:00,
2013-01-05 06:06:00,5.3,2.3,30.14,SSW,207,0.0,0.0,87,0.00,,---,0.00,0.00,VWS V14.01,2013-01-05 12:06:00,
2013-01-05 06:11:00,5.3,2.3,30.14,SSW,207,0.0,0.0,87,0.00,,---,0.00,0.00,VWS V14.01,2013-01-05 12:11:00,
2013-01-05 06:16:00,5.3,2.3,30.14,SSW,207,0.0,1.0,87,0.00,,---,0.00,0.00,VWS V14.01,2013-01-05 12:16:00,
2013-01-05 06:21:00,5.2,2.2,30.14,SSW,207,0.0,1.0,87,0.00,,---,0.00,0.00,VWS V14.01,2013-01-05 12:21:00,
2013-01-05 06:26:00,5.1,2.1,30.14,SSW,207,0.0,2.0,87,0.00,,---,0.00,0.00,VWS V14.01,2013-01-05 12:26:00,
2013-01-05 06:31:00,5.1,2.1,30.14,SSW,207,0.0,2.0,87,0.00,,---,0.00,0.00,VWS V14.01,2013-01-05 12:31:00,
2013-01-05 06:36:00,5.0,4.6,30.15,SSW,207,2.0,2.0,98,0.00,,---,0.00,0.00,VWS V14.01,2013-01-05 12:36:00,
2013-01-05 06:41:00,5.0,2.0,30.14,SSW,207,1.0,3.0,87,0.00,,---,0.00,0.00,VWS V14.01,2013-01-05 12:41:00,
2013-01-05 06:46:00,5.0,2.2,30.15,SSW,208,2.0,3.0,88,0.00,,---,0.00,0.00,VWS V14.01,2013-01-05 12:46:00,
2013-01-05 06:51:00,5.2,2.4,30.15,SSW,207,0.0,3.0,88,0.00,,---,0.00,0.00,VWS V14.01,2013-01-05 12:51:00,
2013-01-05 06:56:00,5.2,2.4,30.15,SSW,207,0.0,3.0,88,0.00,,---,0.00,0.00,VWS V14.01,2013-01-05 12:56:00,
2013-01-05 07:00:00,5.2,2.4,30.15,SSW,207,0.0,3.0,88,0.00,,---,0.00,0.00,VWS V14.01,2013-01-05 13:00:00,
2013-01-05 07:01:00,5.2,2.4,30.15,SSW,208,0.0,0.0,88,0.00,,---,0.00,0.00,VWS V14.01,2013-01-05 13:01:00,
2013-01-05 07:06:00,5.2,2.4,30.14,SSW,207,1.0,2.0,88,0.00,,---,0.00,0.00,VWS V14.01,2013-01-05 13:06:00,
2013-01-05 07:11:00,5.3,2.5,30.14,SSW,207,0.0,2.0,88,0.00,,---,0.00,0.00,VWS V14.01,2013-01-05 13:11:00,
2013-01-05 07:16:00,5.4,2.6,30.14,SSW,208,1.0,3.0,88,0.00,,---,0.00,0.00,VWS V14.01,2013-01-05 13:16:00,
2013-01-05 07:21:00,5.4,2.6,30.14,SSW,208,1.0,3.0,88,0.00,,---,0.00,0.00,VWS V14.01,2013-01-05 13:21:00,
2013-01-05 07:26:00,5.4,2.6,30.13,SSW,207,2.0,3.0,88,0.00,,---,0.00,0.00,VWS V14.01,2013-01-05 13:26:00,
2013-01-05 07:31:00,5.4,2.6,30.13,SSW,207,1.0,3.0,88,0.00,,---,0.00,0.00,VWS V14.01,2013-01-05 13:31:00,
2013-01-05 07:36:00,5.4,2.6,30.13,SSW,207,0.0,3.0,88,0.00,,---,0.00,5.00,VWS V14.01,2013-01-05 13:36:00,
2013-01-05 07:41:00,5.5,2.7,30.13,SSW,208,0.0,3.0,88,0.00,,---,0.00,9.00,VWS V14.01,2013-01-05 13:41:00,
2013-01-05 07:46:00,5.9,3.4,30.12,SSW,207,0.0,3.0,89,0.00,,---,0.00,16.00,VWS V14.01,2013-01-05 13:46:00,
2013-01-05 07:51:00,6.3,3.8,30.13,SSW,207,0.0,3.0,89,0.00,,---,0.00,25.00,VWS V14.01,2013-01-05 13:51:00,
2013-01-05 07:56:00,6.9,4.6,30.12,SSW,207,1.0,3.0,90,0.00,,---,0.00,33.00,VWS V14.01,2013-01-05 13:56:00,
2013-01-05 08:00:00,7.3,5.0,30.12,SSW,207,2.0,3.0,90,0.00,,---,0.00,40.00,VWS V14.01,2013-01-05 14:00:00,
2013-01-05 08:01:00,7.4,5.1,30.12,SSW,207,2.0,3.0,90,0.00,,---,0.00,42.00,VWS V14.01,2013-01-05 14:01:00,
2013-01-05 08:06:00,7.6,5.0,30.12,SSW,208,0.0,3.0,89,0.00,,---,0.00,47.00,VWS V14.01,2013-01-05 14:06:00,
2013-01-05 08:11:00,7.7,5.1,30.12,SSW,208,0.0,3.0,89,0.00,,---,0.00,47.00,VWS V14.01,2013-01-05 14:11:00,
2013-01-05 08:16:00,8.0,5.7,30.11,SSW,208,1.0,3.0,90,0.00,,---,0.00,42.00,VWS V14.01,2013-01-05 14:16:00,
2013-01-05 08:21:00,8.3,6.0,30.11,SSW,208,1.0,3.0,90,0.00,,---,0.00,53.00,VWS V14.01,2013-01-05 14:21:00,
2013-01-05 08:26:00,8.6,6.3,30.11,SSW,207,0.0,3.0,90,0.00,,---,0.00,37.00,VWS V14.01,2013-01-05 14:26:00,
2013-01-05 08:31:00,8.8,6.5,30.11,SSW,208,0.0,3.0,90,0.00,,---,0.00,39.00,VWS V14.01,2013-01-05 14:31:00,
2013-01-05 08:36:00,9.2,6.9,30.10,SSW,208,0.0,3.0,90,0.00,,---,0.00,39.00,VWS V14.01,2013-01-05 14:36:00,
2013-01-05 08:41:00,9.7,7.4,30.11,SSW,208,0.0,3.0,90,0.00,,---,0.00,40.00,VWS V14.01,2013-01-05 14:41:00,
2013-01-05 08:46:00,10.6,8.5,30.10,SSW,208,0.0,3.0,91,0.00,,---,0.00,40.00,VWS V14.01,2013-01-05 14:46:00,
2013-01-05 08:51:00,11.2,9.1,30.10,SSW,208,0.0,3.0,91,0.00,,---,0.00,47.00,VWS V14.01,2013-01-05 14:51:00,
2013-01-05 08:56:00,11.6,9.5,30.10,SSW,208,0.0,3.0,91,0.00,,---,0.00,51.00,VWS V14.01,2013-01-05 14:56:00,
2013-01-05 09:00:00,11.9,10.0,30.11,SSW,208,1.0,3.0,92,0.00,,---,0.00,88.00,VWS V14.01,2013-01-05 15:00:00,
2013-01-05 09:01:00,12.0,10.1,30.11,SSW,208,2.0,3.0,92,0.00,,---,0.00,69.00,VWS V14.01,2013-01-05 15:01:00,
2013-01-05 09:06:00,12.3,10.4,30.11,SSW,207,0.0,3.0,92,0.00,,---,0.00,44.00,VWS V14.01,2013-01-05 15:06:00,
2013-01-05 09:11:00,12.6,10.5,30.11,SSW,208,0.0,3.0,91,0.00,,---,0.00,44.00,VWS V14.01,2013-01-05 15:11:00,
2013-01-05 09:16:00,13.0,11.1,30.11,SSW,208,0.0,3.0,92,0.00,,---,0.00,74.00,VWS V14.01,2013-01-05 15:16:00,
2013-01-05 09:21:00,13.6,11.7,30.11,SSW,208,0.0,3.0,92,0.00,,---,0.00,105.00,VWS V14.01,2013-01-05 15:21:00,
2013-01-05 09:26:00,14.6,12.9,30.11,SSW,208,0.0,3.0,93,0.00,,---,0.00,100.00,VWS V14.01,2013-01-05 15:26:00,
2013-01-05 09:31:00,15.4,13.7,30.11,SSW,207,0.0,3.0,93,0.00,,---,0.00,113.00,VWS V14.01,2013-01-05 15:31:00,
2013-01-05 09:36:00,15.9,14.2,30.11,SSW,208,0.0,3.0,93,0.00,,---,0.00,102.00,VWS V14.01,2013-01-05 15:36:00,
2013-01-05 09:41:00,16.7,15.0,30.12,SSW,208,1.0,3.0,93,0.00,,---,0.00,134.00,VWS V14.01,2013-01-05 15:41:00,
2013-01-05 09:46:00,18.0,16.6,30.13,SSW,208,1.0,3.0,94,0.00,,---,0.00,174.00,VWS V14.01,2013-01-05 15:46:00,
2013-01-05 09:51:00,19.3,17.9,30.13,SW,230,1.0,4.0,94,0.00,,---,0.00,183.00,VWS V14.01,2013-01-05 15:51:00,
2013-01-05 09:56:00,20.5,19.0,30.13,SW,230,3.0,4.0,94,0.00,,---,0.00,218.00,VWS V14.01,2013-01-05 15:56:00,
2013-01-05 10:00:00,21.6,20.1,30.12,SW,230,2.0,4.0,94,0.00,,---,0.00,241.00,VWS V14.01,2013-01-05 16:00:00,
2013-01-05 10:01:00,21.9,20.4,30.12,SW,230,3.0,3.0,94,0.00,,---,0.00,257.00,VWS V14.01,2013-01-05 16:01:00,
2013-01-05 10:06:00,22.7,20.5,30.12,SW,228,3.0,3.0,91,0.00,,---,0.00,308.00,VWS V14.01,2013-01-05 16:06:00,
2013-01-05 10:11:00,23.4,20.6,30.12,SW,223,4.0,4.0,89,0.00,,---,0.00,320.00,VWS V14.01,2013-01-05 16:11:00,
2013-01-05 10:16:00,23.9,20.9,30.11,SW,223,2.0,4.0,88,0.00,,---,0.00,330.00,VWS V14.01,2013-01-05 16:16:00,
2013-01-05 10:21:00,24.3,20.7,30.11,SW,215,4.0,4.0,86,0.00,,---,0.00,336.00,VWS V14.01,2013-01-05 16:21:00,
2013-01-05 10:26:00,24.5,20.9,30.11,SW,214,2.0,4.0,86,0.00,,---,0.00,346.00,VWS V14.01,2013-01-05 16:26:00,
2013-01-05 10:31:00,24.8,21.2,30.10,SW,214,5.0,5.0,86,0.00,,---,0.00,353.00,VWS V14.01,2013-01-05 16:31:00,
2013-01-05 10:36:00,25.4,21.5,30.10,SSW,213,3.0,5.0,85,0.00,,---,0.00,364.00,VWS V14.01,2013-01-05 16:36:00,
2013-01-05 10:41:00,26.0,22.1,30.10,SSW,213,5.0,5.0,85,0.00,,---,0.00,371.00,VWS V14.01,2013-01-05 16:41:00,
2013-01-05 10:46:00,26.5,22.3,30.09,SSW,207,4.0,6.0,84,0.00,,---,0.00,387.00,VWS V14.01,2013-01-05 16:46:00,
2013-01-05 10:51:00,27.0,22.8,30.09,SSW,205,2.0,6.0,84,0.00,,---,0.00,392.00,VWS V14.01,2013-01-05 16:51:00,
2013-01-05 10:56:00,27.8,23.3,30.09,South,188,2.0,6.0,83,0.00,,---,0.00,397.00,VWS V14.01,2013-01-05 16:56:00,
2013-01-05 11:00:00,28.0,23.2,30.09,SSW,203,4.0,6.0,82,0.00,,---,0.00,343.00,VWS V14.01,2013-01-05 17:00:00,
2013-01-05 11:01:00,28.0,23.2,30.08,SSW,205,5.0,6.0,82,0.00,,---,0.00,392.00,VWS V14.01,2013-01-05 17:01:00,
2013-01-05 11:06:00,28.3,23.5,30.08,SSW,200,7.0,7.0,82,0.00,,---,0.00,406.00,VWS V14.01,2013-01-05 17:06:00,
2013-01-05 11:11:00,28.4,23.6,30.08,SSW,203,6.0,7.0,82,0.00,,---,0.00,404.00,VWS V14.01,2013-01-05 17:11:00,
2013-01-05 11:16:00,28.4,23.6,30.07,SSW,201,4.0,7.0,82,0.00,,---,0.00,418.00,VWS V14.01,2013-01-05 17:16:00,
2013-01-05 11:21:00,28.4,23.6,30.06,SSW,206,4.0,7.0,82,0.00,,---,0.00,181.00,VWS V14.01,2013-01-05 17:21:00,
2013-01-05 11:26:00,28.7,23.9,30.06,SSW,206,2.0,7.0,82,0.00,,---,0.00,294.00,VWS V14.01,2013-01-05 17:26:00,
2013-01-05 11:31:00,28.8,23.7,30.06,SSW,211,3.0,7.0,81,0.00,,---,0.00,223.00,VWS V14.01,2013-01-05 17:31:00,
2013-01-05 11:36:00,28.7,23.6,30.06,SSW,211,4.0,7.0,81,0.00,,---,0.00,306.00,VWS V14.01,2013-01-05 17:36:00,
2013-01-05 11:41:00,29.3,24.5,30.06,SSW,209,4.0,7.0,82,0.00,,---,0.00,603.00,VWS V14.01,2013-01-05 17:41:00,
2013-01-05 11:46:00,29.7,24.3,30.05,SSW,205,4.0,7.0,80,0.00,,---,0.00,517.00,VWS V14.01,2013-01-05 17:46:00,
2013-01-05 11:51:00,30.1,24.7,30.04,SW,219,6.0,7.0,80,0.00,,---,0.00,461.00,VWS V14.01,2013-01-05 17:51:00,
2013-01-05 11:56:00,30.4,25.0,30.04,SSW,199,4.0,7.0,80,0.00,,---,0.00,471.00,VWS V14.01,2013-01-05 17:56:00,
2013-01-05 12:00:00,30.4,25.0,30.03,SSW,202,5.0,7.0,80,0.00,,---,0.00,179.00,VWS V14.01,2013-01-05 18:00:00,
2013-01-05 12:01:00,30.3,24.6,30.03,SSW,199,7.0,7.0,79,0.00,,---,0.00,197.00,VWS V14.01,2013-01-05 18:01:00,
2013-01-05 12:06:00,30.1,24.7,30.03,SSW,194,6.0,7.0,80,0.00,,---,0.00,350.00,VWS V14.01,2013-01-05 18:06:00,
2013-01-05 12:11:00,30.4,25.0,30.03,SSW,204,6.0,7.0,80,0.00,,---,0.00,297.00,VWS V14.01,2013-01-05 18:11:00,
2013-01-05 12:16:00,30.6,25.2,30.02,SSW,204,6.0,7.0,80,0.00,,---,0.00,225.00,VWS V14.01,2013-01-05 18:16:00,
2013-01-05 12:21:00,30.8,25.4,30.02,SSW,213,6.0,7.0,80,0.00,,---,0.00,232.00,VWS V14.01,2013-01-05 18:21:00,
2013-01-05 12:26:00,31.0,25.6,30.01,SW,235,6.0,9.0,80,0.00,,---,0.00,227.00,VWS V14.01,2013-01-05 18:26:00,
2013-01-05 12:31:00,31.1,25.4,30.01,SSW,205,5.0,9.0,79,0.00,,---,0.00,227.00,VWS V14.01,2013-01-05 18:31:00,
2013-01-05 12:36:00,31.2,25.5,30.01,SSW,203,5.0,9.0,79,0.00,,---,0.00,220.00,VWS V14.01,2013-01-05 18:36:00,
2013-01-05 12:41:00,31.3,25.6,30.00,SSW,205,6.0,9.0,79,0.00,,---,0.00,204.00,VWS V14.01,2013-01-05 18:41:00,
2013-01-05 12:46:00,31.2,25.5,30.00,SSW,202,6.0,9.0,79,0.00,,---,0.00,188.00,VWS V14.01,2013-01-05 18:46:00,
2013-01-05 12:51:00,31.2,25.8,30.00,SSW,201,4.0,9.0,80,0.00,,---,0.00,179.00,VWS V14.01,2013-01-05 18:51:00,
2013-01-05 12:56:00,31.4,26.0,30.00,South,178,3.0,9.0,80,0.00,,---,0.00,174.00,VWS V14.01,2013-01-05 18:56:00,
2013-01-05 13:00:00,31.5,25.8,30.00,SSW,206,7.0,9.0,79,0.00,,---,0.00,171.00,VWS V14.01,2013-01-05 19:00:00,
2013-01-05 13:01:00,31.5,25.8,30.00,SSW,203,5.0,7.0,79,0.00,,---,0.00,169.00,VWS V14.01,2013-01-05 19:01:00,
2013-01-05 13:06:00,31.2,25.5,29.99,SSW,205,7.0,7.0,79,0.00,,---,0.00,167.00,VWS V14.01,2013-01-05 19:06:00,
2013-01-05 13:11:00,31.0,25.6,29.99,SSW,205,5.0,7.0,80,0.00,,---,0.00,160.00,VWS V14.01,2013-01-05 19:11:00,
2013-01-05 13:16:00,30.8,25.4,29.99,SSW,194,4.0,7.0,80,0.00,,---,0.00,156.00,VWS V14.01,2013-01-05 19:16:00,
2013-01-05 13:21:00,30.7,25.3,29.98,SSW,202,6.0,9.0,80,0.00,,---,0.00,162.00,VWS V14.01,2013-01-05 19:21:00,
2013-01-05 13:26:00,30.7,25.6,29.98,SSW,213,7.0,9.0,81,0.00,,---,0.00,186.00,VWS V14.01,2013-01-05 19:26:00,
2013-01-05 13:31:00,30.9,25.5,29.98,SSW,209,6.0,9.0,80,0.00,,---,0.00,211.00,VWS V14.01,2013-01-05 19:31:00,
2013-01-05 13:36:00,31.1,25.7,29.97,SSW,198,4.0,9.0,80,0.00,,---,0.00,211.00,VWS V14.01,2013-01-05 19:36:00,
2013-01-05 13:41:00,31.2,25.8,29.97,SSW,209,5.0,9.0,80,0.00,,---,0.00,200.00,VWS V14.01,2013-01-05 19:41:00,
2013-01-05 13:46:00,31.5,26.0,29.97,SSW,195,4.0,9.0,80,0.00,,---,0.00,202.00,VWS V14.01,2013-01-05 19:46:00,
2013-01-05 13:51:00,31.7,26.2,29.97,SSW,204,4.0,9.0,80,0.00,,---,0.00,274.00,VWS V14.01,2013-01-05 19:51:00,
2013-01-05 13:56:00,32.0,26.2,29.96,SSW,205,5.0,9.0,79,0.00,,---,0.00,230.00,VWS V14.01,2013-01-05 19:56:00,
2013-01-05 14:00:00,32.2,26.4,29.96,SSW,207,4.0,9.0,79,0.00,,---,0.00,223.00,VWS V14.01,2013-01-05 20:00:00,
2013-01-05 14:01:00,32.3,26.5,29.96,SSW,205,6.0,6.0,79,0.00,,---,0.00,225.00,VWS V14.01,2013-01-05 20:01:00,
2013-01-05 14:06:00,32.4,26.6,29.95,SSW,206,6.0,7.0,79,0.00,,---,0.00,186.00,VWS V14.01,2013-01-05 20:06:00,
2013-01-05 14:11:00,32.6,27.1,29.95,SW,224,7.0,7.0,80,0.00,,---,0.00,179.00,VWS V14.01,2013-01-05 20:11:00,
2013-01-05 14:16:00,32.8,27.0,29.95,SSW,200,7.0,7.0,79,0.00,,---,0.00,162.00,VWS V14.01,2013-01-05 20:16:00,
2013-01-05 14:21:00,32.9,27.1,29.95,SSW,194,6.0,7.0,79,0.00,,---,0.00,151.00,VWS V14.01,2013-01-05 20:21:00,
2013-01-05 14:26:00,33.0,27.2,29.95,SSW,212,5.0,9.0,79,0.00,,---,0.00,125.00,VWS V14.01,2013-01-05 20:26:00,
2013-01-05 14:31:00,32.9,27.1,29.94,SSW,204,6.0,9.0,79,0.00,,---,0.00,128.00,VWS V14.01,2013-01-05 20:31:00,
2013-01-05 14:36:00,33.0,27.5,29.94,SSW,210,4.0,9.0,80,0.00,,---,0.00,156.00,VWS V14.01,2013-01-05 20:36:00,
2013-01-05 14:41:00,33.2,27.4,29.94,SSW,202,5.0,9.0,79,0.00,,---,0.00,135.00,VWS V14.01,2013-01-05 20:41:00,
2013-01-05 14:46:00,33.3,27.5,29.94,SSW,202,3.0,9.0,79,0.00,,---,0.00,113.00,VWS V14.01,2013-01-05 20:46:00,
2013-01-05 14:51:00,33.2,27.4,29.94,SSW,213,4.0,9.0,79,0.00,,---,0.00,104.00,VWS V14.01,2013-01-05 20:51:00,
2013-01-05 14:56:00,33.1,27.6,29.94,SSW,192,4.0,9.0,80,0.00,,---,0.00,93.00,VWS V14.01,2013-01-05 20:56:00,
2013-01-05 15:00:00,33.2,27.4,29.94,SSW,206,3.0,9.0,79,0.00,,---,0.00,84.00,VWS V14.01,2013-01-05 21:00:00,
2013-01-05 15:01:00,33.2,27.7,29.94,SSW,206,3.0,3.0,80,0.00,,---,0.00,86.00,VWS V14.01,2013-01-05 21:01:00,
2013-01-05 15:06:00,33.4,27.9,29.94,SW,223,4.0,5.0,80,0.00,,---,0.00,93.00,VWS V14.01,2013-01-05 21:06:00,
2013-01-05 15:11:00,33.4,27.9,29.94,SSW,201,4.0,7.0,80,0.00,,---,0.00,93.00,VWS V14.01,2013-01-05 21:11:00,
2013-01-05 15:16:00,33.4,27.9,29.94,SSW,201,5.0,7.0,80,0.00,,---,0.00,91.00,VWS V14.01,2013-01-05 21:16:00,
2013-01-05 15:21:00,33.5,28.0,29.94,SSW,204,7.0,9.0,80,0.00,,---,0.00,90.00,VWS V14.01,2013-01-05 21:21:00,
2013-01-05 15:26:00,33.6,27.8,29.94,SSW,204,7.0,9.0,79,0.00,,---,0.00,104.00,VWS V14.01,2013-01-05 21:26:00,
2013-01-05 15:31:00,33.5,28.0,29.94,SSW,208,6.0,9.0,80,0.00,,---,0.00,88.00,VWS V14.01,2013-01-05 21:31:00,
2013-01-05 15:36:00,33.4,27.9,29.94,SSW,211,6.0,10.0,80,0.00,,---,0.00,62.00,VWS V14.01,2013-01-05 21:36:00,
2013-01-05 15:41:00,33.2,27.7,29.94,SSW,198,4.0,10.0,80,0.00,,---,0.00,54.00,VWS V14.01,2013-01-05 21:41:00,
2013-01-05 15:46:00,33.2,28.0,29.94,SSW,205,7.0,10.0,81,0.00,,---,0.00,54.00,VWS V14.01,2013-01-05 21:46:00,
2013-01-05 15:51:00,33.2,28.0,29.94,SW,221,6.0,10.0,81,0.00,,---,0.00,46.00,VWS V14.01,2013-01-05 21:51:00,
2013-01-05 15:56:00,33.2,28.0,29.94,SW,223,5.0,10.0,81,0.00,,---,0.00,33.00,VWS V14.01,2013-01-05 21:56:00,
2013-01-05 16:00:00,33.2,28.3,29.94,SSW,198,4.0,10.0,82,0.00,,---,0.00,30.00,VWS V14.01,2013-01-05 22:00:00,
2013-01-05 16:01:00,33.2,28.3,29.94,SW,225,7.0,7.0,82,0.00,,---,0.00,26.00,VWS V14.01,2013-01-05 22:01:00,
2013-01-05 16:06:00,33.1,28.2,29.93,SSW,212,9.0,9.0,82,0.00,,---,0.00,21.00,VWS V14.01,2013-01-05 22:06:00,
2013-01-05 16:11:00,33.1,28.2,29.93,SSW,200,5.0,9.0,82,0.00,,---,0.00,18.00,VWS V14.01,2013-01-05 22:11:00,
2013-01-05 16:16:00,33.0,28.4,29.94,SSW,206,5.0,9.0,83,0.00,,---,0.00,12.00,VWS V14.01,2013-01-05 22:16:00,
2013-01-05 16:21:00,33.0,28.4,29.94,SW,223,6.0,9.0,83,0.00,,---,0.00,7.00,VWS V14.01,2013-01-05 22:21:00,
2013-01-05 16:26:00,33.1,28.5,29.94,SSW,201,7.0,9.0,83,0.00,,---,0.00,5.00,VWS V14.01,2013-01-05 22:26:00,
2013-01-05 16:31:00,33.0,28.4,29.93,SSW,198,4.0,9.0,83,0.00,,---,0.00,0.00,VWS V14.01,2013-01-05 22:31:00,
2013-01-05 16:36:00,33.0,28.4,29.93,SSW,211,5.0,9.0,83,0.00,,---,0.00,0.00,VWS V14.01,2013-01-05 22:36:00,
2013-01-05 16:41:00,33.0,28.4,29.93,SSW,202,4.0,9.0,83,0.00,,---,0.00,0.00,VWS V14.01,2013-01-05 22:41:00,
2013-01-05 16:46:00,32.9,28.6,29.93,SSW,210,7.0,9.0,84,0.00,,---,0.00,0.00,VWS V14.01,2013-01-05 22:46:00,
2013-01-05 16:51:00,32.9,28.6,29.93,SSW,201,6.0,11.0,84,0.00,,---,0.00,0.00,VWS V14.01,2013-01-05 22:51:00,
2013-01-05 16:56:00,32.9,28.6,29.92,SSW,203,4.0,11.0,84,0.00,,---,0.00,0.00,VWS V14.01,2013-01-05 22:56:00,
2013-01-05 17:00:00,32.9,28.6,29.93,SSW,205,4.0,11.0,84,0.00,,---,0.00,0.00,VWS V14.01,2013-01-05 23:00:00,
2013-01-05 17:01:00,32.8,28.5,29.92,SSW,208,5.0,6.0,84,0.00,,---,0.00,0.00,VWS V14.01,2013-01-05 23:01:00,
2013-01-05 17:06:00,32.8,28.5,29.93,SSW,196,6.0,7.0,84,0.00,,---,0.00,0.00,VWS V14.01,2013-01-05 23:06:00,
2013-01-05 17:11:00,32.9,28.9,29.93,SSW,198,5.0,10.0,85,0.00,,---,0.00,0.00,VWS V14.01,2013-01-05 23:11:00,
2013-01-05 17:16:00,33.0,29.0,29.93,SSW,202,7.0,10.0,85,0.00,,---,0.00,0.00,VWS V14.01,2013-01-05 23:16:00,
2013-01-05 17:21:00,33.0,29.0,29.92,SSW,205,5.0,10.0,85,0.00,,---,0.00,0.00,VWS V14.01,2013-01-05 23:21:00,
2013-01-05 17:26:00,33.0,29.0,29.92,SSW,201,6.0,10.0,85,0.00,,---,0.00,0.00,VWS V14.01,2013-01-05 23:26:00,
2013-01-05 17:31:00,33.1,29.1,29.92,SW,236,5.0,10.0,85,0.00,,---,0.00,0.00,VWS V14.01,2013-01-05 23:31:00,
2013-01-05 17:36:00,33.2,29.2,29.92,SSW,209,4.0,10.0,85,0.00,,---,0.00,0.00,VWS V14.01,2013-01-05 23:36:00,
2013-01-05 17:41:00,33.2,29.2,29.92,SSW,205,5.0,10.0,85,0.00,,---,0.00,0.00,VWS V14.01,2013-01-05 23:41:00,
2013-01-05 17:46:00,33.3,29.3,29.92,SSW,205,6.0,10.0,85,0.00,,---,0.00,0.00,VWS V14.01,2013-01-05 23:46:00,
2013-01-05 17:51:00,33.3,29.3,29.92,SSW,200,5.0,10.0,85,0.00,,---,0.00,0.00,VWS V14.01,2013-01-05 23:51:00,
2013-01-05 17:56:00,33.3,29.3,29.92,SSW,202,4.0,10.0,85,0.00,,---,0.00,0.00,VWS V14.01,2013-01-05 23:56:00,
2013-01-05 18:00:00,33.2,29.5,29.92,SSW,208,4.0,10.0,86,0.00,,---,0.00,0.00,VWS V14.01,2013-01-06 00:00:00,
2013-01-05 18:01:00,33.2,29.5,29.92,SSW,204,3.0,5.0,86,0.00,,---,0.00,0.00,VWS V14.01,2013-01-06 00:01:00,
2013-01-05 18:06:00,33.2,29.5,29.92,SSW,206,4.0,6.0,86,0.00,,---,0.00,0.00,VWS V14.01,2013-01-06 00:06:00,
2013-01-05 18:11:00,33.2,29.5,29.92,SSW,201,4.0,6.0,86,0.00,,---,0.00,0.00,VWS V14.01,2013-01-06 00:11:00,
2013-01-05 18:16:00,33.1,29.4,29.92,SSW,201,4.0,6.0,86,0.00,,---,0.00,0.00,VWS V14.01,2013-01-06 00:16:00,
2013-01-05 18:21:00,33.0,29.3,29.92,SSW,205,3.0,6.0,86,0.00,,---,0.00,0.00,VWS V14.01,2013-01-06 00:21:00,
2013-01-05 18:26:00,33.0,29.3,29.92,SSW,204,3.0,6.0,86,0.00,,---,0.00,0.00,VWS V14.01,2013-01-06 00:26:00,
2013-01-05 18:31:00,32.9,29.2,29.92,SSW,203,0.0,6.0,86,0.00,,---,0.00,0.00,VWS V14.01,2013-01-06 00:31:00,
2013-01-05 18:36:00,32.9,29.5,29.92,SSW,203,2.0,6.0,87,0.00,,---,0.00,0.00,VWS V14.01,2013-01-06 00:36:00,
2013-01-05 18:41:00,32.9,29.5,29.92,SSW,207,4.0,6.0,87,0.00,,---,0.00,0.00,VWS V14.01,2013-01-06 00:41:00,
2013-01-05 18:46:00,32.9,29.5,29.92,SSW,207,2.0,6.0,87,0.00,,---,0.00,0.00,VWS V14.01,2013-01-06 00:46:00,
2013-01-05 18:51:00,33.0,29.6,29.92,SSW,203,5.0,6.0,87,0.00,,---,0.00,0.00,VWS V14.01,2013-01-06 00:51:00,
2013-01-05 18:56:00,33.1,29.7,29.92,SSW,206,3.0,6.0,87,0.00,,---,0.00,0.00,VWS V14.01,2013-01-06 00:56:00,
2013-01-05 19:00:00,33.2,29.8,29.92,SSW,196,4.0,6.0,87,0.00,,---,0.00,0.00,VWS V14.01,2013-01-06 01:00:00,
2013-01-05 19:01:00,33.2,29.8,29.92,SSW,196,3.0,4.0,87,0.00,,---,0.00,0.00,VWS V14.01,2013-01-06 01:01:00,
2013-01-05 19:06:00,33.3,29.9,29.92,SSW,202,1.0,4.0,87,0.00,,---,0.00,0.00,VWS V14.01,2013-01-06 01:06:00,
2013-01-05 19:11:00,33.4,30.2,29.92,SSW,209,2.0,6.0,88,0.00,,---,0.00,0.00,VWS V14.01,2013-01-06 01:11:00,
2013-01-05 19:15:00,33.4,30.0,29.92,SSW,209,3.0,6.0,87,0.00,,---,0.00,0.00,VWS V14.01,2013-01-06 01:15:00,
2013-01-05 19:20:00,33.4,30.2,29.91,SSW,209,5.0,6.0,88,0.00,,---,0.00,0.00,VWS V14.01,2013-01-06 01:20:00,
2013-01-05 19:25:00,33.6,30.4,29.91,SSW,205,3.0,6.0,88,0.00,,---,0.00,0.00,VWS V14.01,2013-01-06 01:25:00,
2013-01-05 19:30:00,33.7,30.5,29.91,SSW,205,4.0,6.0,88,0.00,,---,0.00,0.00,VWS V14.01,2013-01-06 01:30:00,
2013-01-05 19:35:00,33.8,30.6,29.91,SSW,205,3.0,6.0,88,0.00,,---,0.00,0.00,VWS V14.01,2013-01-06 01:35:00,
2013-01-05 19:40:00,33.8,30.6,29.91,SSW,207,4.0,6.0,88,0.00,,---,0.00,0.00,VWS V14.01,2013-01-06 01:40:00,
2013-01-05 19:45:00,33.9,30.7,29.91,SSW,205,5.0,7.0,88,0.00,,---,0.00,0.00,VWS V14.01,2013-01-06 01:45:00,
2013-01-05 19:50:00,33.9,30.7,29.91,SW,215,2.0,7.0,88,0.00,,---,0.00,0.00,VWS V14.01,2013-01-06 01:50:00,
2013-01-05 19:55:00,34.0,30.8,29.91,SW,229,3.0,7.0,88,0.00,,---,0.00,0.00,VWS V14.01,2013-01-06 01:55:00,
2013-01-05 20:00:00,34.1,30.9,29.91,SSW,204,3.0,4.0,88,0.00,,---,0.00,0.00,VWS V14.01,2013-01-06 02:00:00,
2013-01-05 20:05:00,34.1,30.9,29.91,WSW,239,8.0,8.0,88,0.00,,---,0.00,0.00,VWS V14.01,2013-01-06 02:05:00,
2013-01-05 20:10:00,34.2,31.0,29.91,SW,221,4.0,8.0,88,0.00,,---,0.00,0.00,VWS V14.01,2013-01-06 02:10:00,
2013-01-05 20:15:00,34.3,30.8,29.91,WSW,240,6.0,8.0,87,0.00,,---,0.00,0.00,VWS V14.01,2013-01-06 02:15:00,
2013-01-05 20:20:00,34.3,30.8,29.91,SW,226,4.0,8.0,87,0.00,,---,0.00,0.00,VWS V14.01,2013-01-06 02:20:00,
2013-01-05 20:25:00,34.4,30.9,29.90,SW,225,4.0,8.0,87,0.00,,---,0.00,0.00,VWS V14.01,2013-01-06 02:25:00,
2013-01-05 20:30:00,34.3,30.8,29.90,SW,236,3.0,8.0,87,0.00,,---,0.00,0.00,VWS V14.01,2013-01-06 02:30:00,
2013-01-05 20:35:00,34.3,30.8,29.90,SW,229,5.0,8.0,87,0.00,,---,0.00,0.00,VWS V14.01,2013-01-06 02:35:00,
2013-01-05 20:40:00,34.2,30.7,29.90,SW,221,3.0,8.0,87,0.00,,---,0.00,0.00,VWS V14.01,2013-01-06 02:40:00,
2013-01-05 20:45:00,34.2,30.7,29.90,SW,232,5.0,8.0,87,0.00,,---,0.00,0.00,VWS V14.01,2013-01-06 02:45:00,
2013-01-05 20:50:00,34.2,30.7,29.90,SW,225,4.0,8.0,87,0.00,,---,0.00,0.00,VWS V14.01,2013-01-06 02:50:00,
2013-01-05 20:55:00,34.2,30.7,29.90,SW,223,4.0,8.0,87,0.00,,---,0.00,0.00,VWS V14.01,2013-01-06 02:55:00,
2013-01-05 21:00:00,34.3,30.6,29.89,SW,234,4.0,7.0,86,0.00,,---,0.00,0.00,VWS V14.01,2013-01-06 03:00:00,
2013-01-05 21:05:00,34.3,30.6,29.90,SW,232,4.0,7.0,86,0.00,,---,0.00,0.00,VWS V14.01,2013-01-06 03:05:00,
2013-01-05 21:10:00,34.3,30.3,29.90,SW,234,2.0,7.0,85,0.00,,---,0.00,0.00,VWS V14.01,2013-01-06 03:10:00,
2013-01-05 21:15:00,34.3,30.3,29.90,SW,221,4.0,8.0,85,0.00,,---,0.00,0.00,VWS V14.01,2013-01-06 03:15:00,
2013-01-05 21:20:00,34.3,30.3,29.90,WSW,242,2.0,9.0,85,0.00,,---,0.00,0.00,VWS V14.01,2013-01-06 03:20:00,
2013-01-05 21:25:00,34.3,30.3,29.90,SW,225,4.0,9.0,85,0.00,,---,0.00,0.00,VWS V14.01,2013-01-06 03:25:00,
2013-01-05 21:30:00,34.3,30.3,29.90,West,259,5.0,9.0,85,0.00,,---,0.00,0.00,VWS V14.01,2013-01-06 03:30:00,
2013-01-05 21:35:00,34.2,29.9,29.91,WSW,248,6.0,9.0,84,0.00,,---,0.00,0.00,VWS V14.01,2013-01-06 03:35:00,
2013-01-05 21:40:00,34.1,29.5,29.90,WSW,238,9.0,11.0,83,0.00,,---,0.00,0.00,VWS V14.01,2013-01-06 03:40:00,
2013-01-05 21:45:00,34.1,29.2,29.90,SW,231,3.0,11.0,82,0.00,,---,0.00,0.00,VWS V14.01,2013-01-06 03:45:00,
2013-01-05 21:50:00,34.0,29.1,29.90,WSW,246,3.0,11.0,82,0.00,,---,0.00,0.00,VWS V14.01,2013-01-06 03:50:00,
2013-01-05 21:55:00,33.9,28.7,29.90,WSW,254,5.0,11.0,81,0.00,,---,0.00,0.00,VWS V14.01,2013-01-06 03:55:00,
2013-01-05 22:00:00,33.7,28.2,29.90,West,261,8.0,8.0,80,0.00,,---,0.00,0.00,VWS V14.01,2013-01-06 04:00:00,
2013-01-05 22:05:00,33.5,28.0,29.90,WSW,257,7.0,9.0,80,0.00,,---,0.00,0.00,VWS V14.01,2013-01-06 04:05:00,
2013-01-05 22:10:00,33.2,27.4,29.90,WSW,248,5.0,9.0,79,0.00,,---,0.00,0.00,VWS V14.01,2013-01-06 04:10:00,
2013-01-05 22:15:00,33.0,27.2,29.90,West,261,8.0,10.0,79,0.00,,---,0.00,0.00,VWS V14.01,2013-01-06 04:15:00,
2013-01-05 22:20:00,32.8,27.0,29.90,West,265,2.0,10.0,79,0.00,,---,0.00,0.00,VWS V14.01,2013-01-06 04:20:00,
2013-01-05 22:25:00,32.4,26.6,29.90,West,262,6.0,10.0,79,0.00,,---,0.00,0.00,VWS V14.01,2013-01-06 04:25:00,
2013-01-05 22:30:00,32.1,26.3,29.90,West,261,4.0,10.0,79,0.00,,---,0.00,0.00,VWS V14.01,2013-01-06 04:30:00,
2013-01-05 22:35:00,31.9,26.1,29.90,West,264,4.0,10.0,79,0.00,,---,0.00,0.00,VWS V14.01,2013-01-06 04:35:00,
2013-01-05 22:40:00,31.7,25.9,29.90,WSW,257,5.0,10.0,79,0.00,,---,0.00,0.00,VWS V14.01,2013-01-06 04:40:00,
2013-01-05 22:45:00,31.5,25.8,29.90,West,263,3.0,10.0,79,0.00,,---,0.00,0.00,VWS V14.01,2013-01-06 04:45:00,
2013-01-05 22:50:00,31.4,26.0,29.90,WSW,246,2.0,10.0,80,0.00,,---,0.00,0.00,VWS V14.01,2013-01-06 04:50:00,
2013-01-05 22:55:00,31.2,26.1,29.90,SW,236,3.0,10.0,81,0.00,,---,0.00,0.00,VWS V14.01,2013-01-06 04:55:00,
2013-01-05 23:00:00,31.0,25.9,29.90,West,267,4.0,4.0,81,0.00,,---,0.00,0.00,VWS V14.01,2013-01-06 05:00:00,
2013-01-05 23:01:00,31.0,25.9,29.91,WSW,258,4.0,4.0,81,0.00,,---,0.00,0.00,VWS V14.01,2013-01-06 05:01:00,
2013-01-05 23:06:00,30.9,25.8,29.90,WSW,244,3.0,5.0,81,0.00,,---,0.00,0.00,VWS V14.01,2013-01-06 05:06:00,
2013-01-05 23:08:00,30.9,25.8,29.90,West,259,2.0,5.0,81,0.00,,---,0.00,0.00,VWS V14.01,2013-01-06 05:08:00,
2013-01-05 23:13:00,30.8,26.0,29.90,WSW,246,2.0,5.0,82,0.00,,---,0.00,0.00,VWS V14.01,2013-01-06 05:13:00,
2013-01-05 23:18:00,30.7,25.9,29.90,WSW,250,3.0,5.0,82,0.00,,---,0.00,0.00,VWS V14.01,2013-01-06 05:18:00,
2013-01-05 23:23:00,30.7,25.9,29.91,West,274,4.0,7.0,82,0.00,,---,0.00,0.00,VWS V14.01,2013-01-06 05:23:00,
2013-01-05 23:28:00,30.7,25.9,29.91,WSW,257,5.0,7.0,82,0.00,,---,0.00,0.00,VWS V14.01,2013-01-06 05:28:00,
2013-01-05 23:33:00,30.6,25.5,29.91,WSW,250,4.0,8.0,81,0.00,,---,0.00,0.00,VWS V14.01,2013-01-06 05:33:00,
2013-01-05 23:38:00,30.6,25.8,29.91,WSW,244,4.0,8.0,82,0.00,,---,0.00,0.00,VWS V14.01,2013-01-06 05:38:00,
2013-01-05 23:43:00,30.5,25.7,29.91,WSW,256,3.0,8.0,82,0.00,,---,0.00,0.00,VWS V14.01,2013-01-06 05:43:00,
2013-01-05 23:48:00,30.5,25.7,29.91,West,260,2.0,8.0,82,0.00,,---,0.00,0.00,VWS V14.01,2013-01-06 05:48:00,
2013-01-05 23:53:00,30.2,25.1,29.91,West,275,2.0,8.0,81,0.00,,---,0.00,0.00,VWS V14.01,2013-01-06 05:53:00,
2013-01-05 23:58:00,29.8,24.7,29.91,NW,316,4.0,8.0,81,0.00,,---,0.00,0.00,VWS V14.01,2013-01-06 05:58:00,